GW7317 Weather Reports


time (UTC)temp
C
wind
direction
speed
KPH
gust
KPH
rain 1hr
cm
rain 24hr
cm
rain mn
cm
humidity
%
barometer
mb
20260510011014 25 199 0.0 1.6 0.00 0.00 0.00 64 1009.7
20260510010512 25 199 1.6 4.8 0.00 0.00 0.00 64 1009.8
20260510010008 25 158 0.0 1.6 0.00 0.00 0.00 65 1009.8
20260510005504 26 53 3.2 4.8 0.00 0.00 0.00 67 1009.8
20260510005002 27 0 3.2 4.8 0.00 0.00 0.00 63 1009.4
20260510004458 28 205 1.6 1.6 0.00 0.00 0.00 56 1009.3
20260510003957 28 154 0.0 0.0 0.00 0.00 0.00 53 1009.3
20260510003453 28 204 0.0 0.0 0.00 0.00 0.00 54 1008.8
20260510002948 29 192 1.6 4.8 0.00 0.00 0.00 53 1008.9
20260510002445 29 189 1.6 3.2 0.00 0.00 0.00 64 1009.0
20260510001941 29 193 0.0 0.0 0.00 0.00 0.00 65 1008.9
20260510001439 29 193 0.0 0.0 0.00 0.00 0.00 66 1008.7
20260510000936 29 193 1.6 1.6 0.00 0.00 0.00 66 1008.6
20260510000433 29 193 0.0 0.0 0.00 0.00 0.00 71 1008.8
20260509235929 30 193 0.0 0.0 0.00 0.00 0.00 68 1008.8
20260509235426 30 193 0.0 0.0 0.00 0.00 0.00 67 1008.5
20260509234922 30 193 0.0 0.0 0.00 0.00 0.00 69 1008.7
20260509234419 30 193 0.0 0.0 0.00 0.00 0.00 65 1008.6
20260509233917 30 193 0.0 0.0 0.00 0.00 0.00 68 1008.5
20260509233414 30 193 0.0 0.0 0.00 0.00 0.00 64 1008.5
20260509232910 30 193 0.0 0.0 0.00 0.00 0.00 63 1008.8
20260509232408 30 193 0.0 0.0 0.00 0.00 0.00 62 1008.6
20260509231903 30 193 0.0 0.0 0.00 0.00 0.00 61 1008.5
20260509231400 30 193 0.0 3.2 0.00 0.00 0.00 60 1008.6
20260509230859 30 193 0.0 1.6 0.00 0.00 0.00 61 1008.6
20260509230355 31 193 0.0 0.0 0.00 0.00 0.00 59 1008.3
20260509225851 31 193 0.0 0.0 0.00 0.00 0.00 57 1008.4
20260509225348 31 193 0.0 0.0 0.00 0.00 0.00 57 1008.3
20260509224844 31 193 0.0 0.0 0.00 0.00 0.00 54 1008.4
20260509224340 31 193 0.0 0.0 0.00 0.00 0.00 53 1008.2
20260509223837 32 193 0.0 1.6 0.00 0.00 0.00 53 1008.2
20260509223333 32 193 0.0 0.0 0.00 0.00 0.00 53 1008.2
20260509222830 32 193 0.0 3.2 0.00 0.00 0.00 52 1008.2
20260509222326 32 212 0.0 3.2 0.00 0.00 0.00 53 1008.3
20260509221821 32 254 1.6 1.6 0.00 0.00 0.00 51 1008.1
20260509221319 32 244 0.0 1.6 0.00 0.00 0.00 52 1008.0
20260509220819 32 213 0.0 1.6 0.00 0.00 0.00 53 1008.1
20260509220315 32 158 0.0 4.8 0.00 0.00 0.00 52 1008.3
20260509215811 32 271 1.6 1.6 0.00 0.00 0.00 53 1008.2
20260509215308 32 270 0.0 3.2 0.00 0.00 0.00 51 1008.2
20260509214805 32 217 0.0 1.6 0.00 0.00 0.00 52 1008.2
20260509214302 32 331 0.0 3.2 0.00 0.00 0.00 54 1008.3
20260509213759 32 190 0.0 1.6 0.00 0.00 0.00 54 1008.2
20260509213254 32 189 3.2 3.2 0.00 0.00 0.00 54 1008.2
20260509212752 32 284 0.0 1.6 0.00 0.00 0.00 57 1008.3
20260509212249 32 284 1.6 3.2 0.00 0.00 0.00 55 1008.3
20260509211745 31 190 0.0 1.6 0.00 0.00 0.00 56 1008.3
20260509211242 31 185 1.6 3.2 0.00 0.00 0.00 56 1008.1
20260509210738 32 202 0.0 1.6 0.00 0.00 0.00 56 1008.4
20260509210236 32 206 1.6 1.6 0.00 0.00 0.00 57 1008.5
20260509205735 31 205 1.6 1.6 0.00 0.00 0.00 56 1008.5
20260509205230 31 149 1.6 3.2 0.00 0.00 0.00 58 1008.7
20260509204726 32 168 1.6 6.4 0.00 0.00 0.00 57 1008.7
20260509204223 32 194 1.6 3.2 0.00 0.00 0.00 59 1008.8
20260509203719 32 295 0.0 1.6 0.00 0.00 0.00 58 1008.8
20260509203217 31 237 1.6 1.6 0.00 0.00 0.00 57 1009.0
20260509202712 31 185 0.0 1.6 0.00 0.00 0.00 57 1009.0
20260509202207 31 296 1.6 3.2 0.00 0.00 0.00 60 1009.0
20260509201703 32 354 4.8 4.8 0.00 0.00 0.00 56 1008.9
20260509201200 32 172 1.6 3.2 0.00 0.00 0.00 58 1009.0
20260509200656 31 219 0.0 1.6 0.00 0.00 0.00 60 1009.1
20260509200151 31 239 0.0 1.6 0.00 0.00 0.00 60 1009.2
20260509195648 31 235 1.6 1.6 0.00 0.00 0.00 60 1009.2
20260509195143 31 228 0.0 1.6 0.00 0.00 0.00 58 1009.6
20260509194643 31 209 0.0 0.0 0.00 0.00 0.00 60 1009.3
20260509194140 31 248 1.6 3.2 0.00 0.00 0.00 63 1009.3
20260509193636 31 178 1.6 1.6 0.00 0.00 0.00 59 1009.3
20260509193131 31 176 0.0 1.6 0.00 0.00 0.00 62 1009.6
20260509192628 31 124 1.6 3.2 0.00 0.00 0.00 59 1009.7
20260509192123 31 359 0.0 1.6 0.00 0.00 0.00 61 1009.9
20260509191623 31 324 0.0 3.2 0.00 0.00 0.00 61 1009.6
20260509191121 31 341 0.0 1.6 0.00 0.00 0.00 59 1009.7
20260509190617 31 228 0.0 1.6 0.00 0.00 0.00 57 1009.9
20260509190114 31 204 1.6 1.6 0.00 0.00 0.00 62 1009.8
20260509185612 31 327 0.0 1.6 0.00 0.00 0.00 61 1009.8
20260509185108 31 325 1.6 1.6 0.00 0.00 0.00 60 1010.0
20260509184606 30 185 0.0 1.6 0.00 0.00 0.00 62 1010.1
20260509184102 31 194 1.6 1.6 0.00 0.00 0.00 62 1010.1
20260509183558 31 185 0.0 1.6 0.00 0.00 0.00 62 1010.2
20260509183054 30 185 1.6 1.6 0.00 0.00 0.00 63 1010.2
20260509182551 30 186 0.0 1.6 0.00 0.00 0.00 62 1010.4
20260509182047 30 196 1.6 1.6 0.00 0.00 0.00 63 1010.3
20260509181546 30 196 0.0 1.6 0.00 0.00 0.00 66 1010.5
20260509181042 30 197 3.2 4.8 0.00 0.00 0.00 65 1010.6
20260509180538 30 222 1.6 3.2 0.00 0.00 0.00 65 1010.7
20260509180036 30 195 1.6 3.2 0.00 0.00 0.00 66 1010.7
20260509175531 29 194 0.0 0.0 0.00 0.00 0.00 68 1010.8
20260509175028 29 143 0.0 3.2 0.00 0.00 0.00 67 1010.9
20260509174525 29 181 0.0 3.2 0.00 0.00 0.00 69 1011.0
20260509174020 29 210 1.6 1.6 0.00 0.00 0.00 68 1011.0
20260509173514 29 185 1.6 1.6 0.00 0.00 0.00 67 1010.8
20260509173011 30 221 1.6 4.8 0.00 0.00 0.00 66 1010.8
20260509172508 31 202 1.6 6.4 0.00 0.00 0.00 65 1010.9
20260509172004 31 236 1.6 3.2 0.00 0.00 0.00 65 1010.7
20260509171500 30 192 1.6 3.2 0.00 0.00 0.00 66 1010.9
20260509170956 30 3 0.0 3.2 0.00 0.00 0.00 67 1010.8
20260509170452 29 204 1.6 1.6 0.00 0.00 0.00 69 1010.8
20260509165948 29 201 0.0 1.6 0.00 0.00 0.00 69 1010.6
20260509165447 28 195 3.2 3.2 0.00 0.00 0.00 72 1010.7
20260509164943 28 171 1.6 1.6 0.00 0.00 0.00 73 1010.6
20260509164439 28 235 1.6 1.6 0.00 0.00 0.00 76 1010.8
20260509163935 27 212 0.0 1.6 0.00 0.00 0.00 77 1010.8
20260509163433 27 213 1.6 3.2 0.00 0.00 0.00 77 1010.9
20260509162931 27 213 0.0 1.6 0.00 0.00 0.00 79 1010.9
20260509162431 27 227 0.0 1.6 0.00 0.00 0.00 79 1011.0
20260509161926 26 226 0.0 0.0 0.00 0.00 0.00 79 1011.0
20260509161422 26 229 0.0 1.6 0.00 0.00 0.00 79 1011.3
20260509160918 26 230 1.6 1.6 0.00 0.00 0.00 79 1011.0
20260509160413 26 205 0.0 1.6 0.00 0.00 0.00 81 1011.2
20260509155909 26 210 0.0 1.6 0.00 0.00 0.00 82 1011.2
20260509155407 26 210 0.0 1.6 0.00 0.00 0.00 81 1011.3
20260509154902 26 210 0.0 0.0 0.00 0.00 0.00 83 1011.3
20260509154359 26 210 0.0 1.6 0.00 0.00 0.00 83 1011.5
20260509153856 26 210 0.0 1.6 0.00 0.00 0.00 84 1011.5
20260509153353 26 210 0.0 1.6 0.00 0.00 0.00 83 1011.5
20260509152850 26 210 0.0 0.0 0.00 0.00 0.00 82 1011.3
20260509152346 26 210 0.0 0.0 0.00 0.00 0.00 83 1011.5
20260509151843 26 210 0.0 0.0 0.00 0.00 0.00 84 1011.3
20260509151339 26 210 0.0 0.0 0.00 0.00 0.00 84 1011.2
20260509150838 26 210 0.0 0.0 0.00 0.00 0.00 84 1011.3
20260509150335 26 210 0.0 0.0 0.00 0.00 0.00 83 1011.1
20260509145832 26 210 0.0 0.0 0.00 0.00 0.00 85 1011.0
20260509145327 25 210 0.0 0.0 0.00 0.00 0.00 85 1011.0
20260509144824 25 210 0.0 0.0 0.00 0.00 0.00 86 1010.9
20260509144321 25 210 0.0 0.0 0.00 0.00 0.00 87 1011.0
20260509143818 25 210 0.0 0.0 0.00 0.00 0.00 88 1010.8
20260509143315 25 210 0.0 1.6 0.00 0.00 0.00 89 1010.8
20260509142811 25 210 0.0 0.0 0.00 0.00 0.00 89 1010.7
20260509142307 25 210 0.0 1.6 0.00 0.00 0.00 90 1010.8
20260509141803 25 210 0.0 0.0 0.00 0.00 0.00 90 1010.7
20260509141300 24 210 0.0 0.0 0.00 0.00 0.00 91 1010.7
20260509140756 24 210 0.0 0.0 0.00 0.00 0.00 91 1010.4
20260509140254 24 210 0.0 0.0 0.00 0.00 0.00 92 1010.1
20260509135752 24 210 0.0 0.0 0.00 0.00 0.00 92 1010.7
20260509135249 24 210 0.0 0.0 0.00 0.00 0.00 92 1010.6
20260509134746 24 210 0.0 0.0 0.00 0.00 0.00 92 1010.7
20260509134243 24 210 0.0 0.0 0.00 0.00 0.00 92 1010.7
20260509133740 24 210 0.0 0.0 0.00 0.00 0.00 92 1010.7
20260509133237 24 210 0.0 0.0 0.00 0.00 0.00 92 1010.9
20260509132736 24 210 0.0 0.0 0.00 0.00 0.00 93 1010.6
20260509132234 23 210 0.0 1.6 0.00 0.00 0.00 93 1010.9
20260509131730 23 210 0.0 0.0 0.00 0.00 0.00 93 1011.2
20260509131227 23 210 0.0 0.0 0.00 0.00 0.00 93 1011.3
20260509130723 23 210 0.0 0.0 0.00 0.00 0.00 94 1011.6
20260509130219 23 210 0.0 0.0 0.00 0.00 0.00 94 1011.6
20260509125715 23 210 0.0 0.0 0.00 0.00 0.00 95 1011.3
20260509125213 23 210 0.0 0.0 0.00 0.00 0.00 95 1011.2
20260509124709 23 210 0.0 0.0 0.00 0.00 0.00 96 1011.4
20260509124206 23 210 0.0 0.0 0.00 0.00 0.00 96 1011.2
20260509123704 23 210 0.0 0.0 0.00 0.00 0.00 96 1011.0
20260509123201 23 210 0.0 0.0 0.00 0.00 0.00 97 1011.0
20260509122656 22 210 0.0 0.0 0.00 0.00 0.00 97 1011.2
20260509122153 22 210 0.0 0.0 0.00 0.00 0.00 97 1011.0
20260509121650 22 210 0.0 0.0 0.00 0.00 0.00 97 1010.9
20260509121148 22 210 0.0 0.0 0.00 0.00 0.00 97 1010.5
20260509120646 22 210 0.0 0.0 0.00 0.00 0.00 97 1010.5
20260509120143 22 210 0.0 0.0 0.00 0.00 0.00 97 1010.5
20260509115641 22 210 0.0 0.0 0.00 0.00 0.00 96 1010.3
20260509115138 22 210 0.0 0.0 0.00 0.00 0.00 96 1010.2
20260509114636 22 210 0.0 0.0 0.00 0.00 0.00 96 1010.4
20260509114135 22 210 0.0 0.0 0.00 0.00 0.00 96 1010.9
20260509113633 22 210 0.0 0.0 0.00 0.00 0.00 96 1010.6
20260509113130 22 210 0.0 0.0 0.00 0.00 0.00 96 1010.7
20260509112626 22 210 0.0 0.0 0.00 0.00 0.00 97 1011.0
20260509112123 22 210 0.0 1.6 0.00 0.00 0.00 97 1010.8
20260509111620 22 210 0.0 0.0 0.00 0.00 0.00 97 1011.0
20260509111117 22 210 0.0 0.0 0.00 0.00 0.00 97 1010.9
20260509110614 22 210 0.0 0.0 0.00 0.00 0.00 97 1010.7
20260509110112 22 210 0.0 0.0 0.00 0.00 0.00 97 1011.0
20260509105610 22 210 0.0 0.0 0.00 0.00 0.00 97 1010.9
20260509105107 22 210 0.0 0.0 0.00 0.00 0.00 97 1010.9
20260509104604 22 210 0.0 0.0 0.00 0.00 0.00 97 1010.8
20260509104100 22 210 0.0 0.0 0.00 0.00 0.00 97 1010.8
20260509103558 22 210 0.0 0.0 0.00 0.00 0.00 97 1010.6
20260509103056 22 210 0.0 0.0 0.00 0.00 0.00 97 1010.6
20260509102553 22 210 0.0 0.0 0.00 0.00 0.00 96 1010.7
20260509102050 22 210 0.0 0.0 0.00 0.00 0.00 96 1010.3
20260509101546 22 210 0.0 0.0 0.00 0.00 0.00 96 1010.3
20260509101043 22 210 0.0 0.0 0.00 0.00 0.00 96 1010.2
20260509100540 22 210 0.0 0.0 0.00 0.00 0.00 96 1009.8
20260509100038 22 210 0.0 0.0 0.00 0.00 0.00 96 1009.8
20260509095534 22 210 0.0 0.0 0.00 0.00 0.00 96 1009.7
20260509095032 22 210 0.0 0.0 0.00 0.00 0.00 96 1009.7
20260509094528 22 210 0.0 0.0 0.00 0.00 0.00 96 1009.8
20260509094025 22 210 0.0 0.0 0.00 0.00 0.00 95 1009.7
20260509093523 22 210 0.0 0.0 0.00 0.00 0.00 95 1009.8
20260509093021 22 210 0.0 0.0 0.00 0.00 0.00 95 1010.3
20260509092519 23 210 0.0 0.0 0.00 0.00 0.00 95 1010.2
20260509092017 23 210 0.0 0.0 0.00 0.00 0.00 95 1010.4
20260509091514 23 210 0.0 0.0 0.00 0.00 0.00 95 1010.2
20260509091010 23 210 0.0 0.0 0.00 0.00 0.00 95 1010.4
20260509090508 23 210 0.0 0.0 0.00 0.00 0.00 95 1010.3
20260509090006 23 210 0.0 0.0 0.00 0.00 0.00 95 1010.3
20260509085502 23 210 0.0 0.0 0.00 0.00 0.00 95 1010.5
20260509084958 23 210 0.0 0.0 0.00 0.00 0.00 95 1010.1
20260509084455 23 210 0.0 0.0 0.00 0.00 0.00 95 1010.5
20260509083953 23 210 0.0 0.0 0.00 0.00 0.00 95 1010.4
20260509083450 23 210 0.0 0.0 0.00 0.00 0.00 95 1010.6
20260509082946 23 210 0.0 0.0 0.00 0.00 0.00 94 1010.7
20260509082444 23 210 0.0 0.0 0.00 0.00 0.00 94 1010.5
20260509081941 23 210 0.0 0.0 0.00 0.00 0.00 94 1010.2
20260509081438 23 210 0.0 0.0 0.00 0.00 0.00 94 1010.2
20260509080935 23 210 0.0 0.0 0.00 0.00 0.00 94 1010.1
20260509080433 23 210 0.0 0.0 0.00 0.00 0.00 94 1010.1
20260509075931 23 210 0.0 0.0 0.00 0.00 0.00 94 1010.3
20260509075427 23 210 0.0 0.0 0.00 0.00 0.00 94 1010.1
20260509074926 23 210 0.0 0.0 0.00 0.00 0.00 94 1010.4
20260509074423 23 210 0.0 0.0 0.00 0.00 0.00 94 1010.4
20260509073919 23 210 0.0 1.6 0.00 0.00 0.00 94 1010.3
20260509073415 23 211 0.0 0.0 0.00 0.00 0.00 94 1010.5
20260509072912 23 211 0.0 0.0 0.00 0.00 0.00 94 1010.4
20260509072409 23 211 0.0 0.0 0.00 0.00 0.00 94 1010.3
20260509071905 23 211 0.0 0.0 0.00 0.00 0.00 94 1010.4
20260509071402 23 211 0.0 0.0 0.00 0.00 0.00 94 1010.4
20260509070900 23 211 0.0 0.0 0.00 0.00 0.00 94 1010.2
20260509070356 23 211 0.0 0.0 0.00 0.00 0.00 94 1010.3
20260509065852 23 211 0.0 0.0 0.00 0.00 0.00 94 1010.2
20260509065349 23 211 0.0 0.0 0.00 0.00 0.00 94 1010.4
20260509064844 23 211 0.0 0.0 0.00 0.00 0.00 94 1010.4
20260509064342 23 211 0.0 0.0 0.00 0.00 0.00 94 1010.6
20260509063840 23 211 0.0 0.0 0.00 0.00 0.00 94 1010.4
20260509063336 23 211 0.0 0.0 0.00 0.00 0.00 94 1010.5
20260509062833 23 211 0.0 0.0 0.00 0.00 0.00 94 1010.7
20260509062330 23 211 0.0 0.0 0.00 0.00 0.00 94 1010.8
20260509061827 23 211 0.0 0.0 0.00 0.00 0.00 94 1010.8
20260509061325 23 211 0.0 0.0 0.00 0.00 0.00 93 1010.8
20260509060822 23 211 0.0 0.0 0.00 0.00 0.00 93 1010.9
20260509060319 23 211 0.0 0.0 0.00 0.00 0.00 93 1011.0
20260509055814 23 211 0.0 0.0 0.00 0.00 0.00 93 1011.1
20260509055310 23 211 0.0 0.0 0.00 0.00 0.00 93 1010.8
20260509054808 23 211 0.0 0.0 0.00 0.00 0.00 93 1010.8
20260509054304 22 211 0.0 0.0 0.00 0.00 0.00 93 1011.0
20260509053802 22 211 0.0 0.0 0.00 0.00 0.00 93 1010.8
20260509053259 22 211 0.0 0.0 0.00 0.00 0.00 94 1011.0
20260509052757 22 211 0.0 0.0 0.00 0.00 0.00 94 1011.0
20260509052254 22 211 0.0 0.0 0.00 0.00 0.00 94 1011.0
20260509051752 22 193 0.0 3.2 0.00 0.00 0.00 94 1010.7
20260509051250 22 116 0.0 0.0 0.00 0.00 0.00 94 1010.7
20260509050746 22 110 3.2 3.2 0.00 0.00 0.00 94 1010.9
20260509050243 22 168 0.0 0.0 0.00 0.00 0.00 94 1010.9
20260509045740 22 167 1.6 1.6 0.00 0.00 0.00 94 1010.9
20260509045237 22 173 0.0 1.6 0.00 0.00 0.00 93 1011.0
20260509044734 22 172 0.0 0.0 0.00 0.00 0.00 93 1011.0
20260509044232 22 157 0.0 1.6 0.00 0.00 0.00 93 1011.0
20260509043727 22 155 0.0 1.6 0.00 0.00 0.00 93 1010.8
20260509043224 22 155 0.0 0.0 0.00 0.00 0.00 93 1011.1
20260509042720 22 155 1.6 1.6 0.00 0.00 0.00 93 1011.2
20260509042217 22 209 0.0 0.0 0.00 0.00 0.00 93 1011.2
20260509041714 22 209 1.6 1.6 0.00 0.00 0.00 93 1010.9
20260509041211 22 207 1.6 1.6 0.00 0.00 0.00 93 1011.0
20260509040709 22 208 0.0 0.0 0.00 0.00 0.00 93 1010.9
20260509040205 22 209 0.0 0.0 0.00 0.00 0.00 93 1010.6
20260509035702 22 209 0.0 1.6 0.00 0.00 0.00 93 1010.6
20260509035159 22 224 1.6 1.6 0.00 0.00 0.00 93 1010.7
20260509034657 22 221 0.0 1.6 0.00 0.00 0.00 93 1010.5
20260509034153 22 250 0.0 0.0 0.00 0.00 0.00 93 1010.8
20260509033651 22 180 0.0 1.6 0.00 0.00 0.00 93 1010.4
20260509033147 22 176 0.0 1.6 0.00 0.00 0.00 93 1010.5
20260509032645 22 176 0.0 0.0 0.00 0.00 0.00 94 1010.7
20260509032141 22 176 0.0 0.0 0.00 0.00 0.00 93 1010.6
20260509031639 22 176 0.0 0.0 0.00 0.00 0.00 93 1010.7
20260509031136 22 176 0.0 0.0 0.00 0.00 0.00 93 1010.6
20260509030635 22 176 0.0 1.6 0.00 0.00 0.00 93 1010.4
20260509030132 22 163 0.0 1.6 0.00 0.00 0.00 93 1010.6
20260509025627 22 103 0.0 1.6 0.00 0.00 0.00 93 1010.5
20260509025123 22 80 0.0 1.6 0.00 0.00 0.00 93 1010.4
20260509024619 22 108 0.0 1.6 0.00 0.00 0.00 93 1010.4
20260509024115 22 108 0.0 1.6 0.00 0.00 0.00 93 1010.2
20260509023614 22 109 0.0 3.2 0.00 0.00 0.00 93 1010.1
20260509023110 22 115 0.0 1.6 0.00 0.00 0.00 92 1010.4
20260509022606 22 116 0.0 1.6 0.00 0.00 0.00 92 1010.4
20260509022104 22 157 0.0 1.6 0.00 0.00 0.00 92 1010.3
20260509021601 22 149 1.6 1.6 0.00 0.00 0.00 92 1010.3
20260509021058 22 267 1.6 1.6 0.00 0.00 0.00 91 1010.1
20260509020557 22 299 1.6 3.2 0.00 0.00 0.00 91 1009.9
20260509020053 22 152 0.0 1.6 0.00 0.00 0.00 91 1009.9
20260509015552 22 190 0.0 3.2 0.00 0.00 0.00 91 1010.0
20260509015049 22 127 0.0 1.6 0.00 0.00 0.00 91 1009.9
20260509014545 23 136 3.2 3.2 0.00 0.00 0.00 90 1010.0
20260509014042 23 56 1.6 1.6 0.00 0.00 0.00 90 1010.2
20260509013539 22 44 0.0 0.0 0.00 0.00 0.00 90 1010.0
20260509013034 22 51 0.0 1.6 0.00 0.00 0.00 90 1009.8
20260509012531 22 52 0.0 1.6 0.00 0.00 0.00 90 1009.7
20260509012028 22 52 0.0 1.6 0.00 0.00 0.00 91 1010.1
20260509011526 22 50 0.0 1.6 0.00 0.00 0.00 91 1009.9